EW7772 Weather Reports


time (UTC)temp
C
wind
direction
speed
KPH
gust
KPH
rain 1hr
cm
rain 24hr
cm
rain mn
cm
humidity
%
barometer
mb
20190421003344 7 59 0.0 1.6 0.00 0.00 0.00 60 1023.2
20190421001701 7 59 0.0 0.0 0.00 0.00 0.00 60 1023.2
20190421000239 7 59 0.0 0.0 0.00 0.00 0.00 59 1023.3
20190420234628 7 59 0.0 0.0 0.00 0.00 0.00 59 1023.4
20190420233145 7 59 0.0 0.0 0.00 0.00 0.00 58 1023.4
20190420231713 8 59 0.0 0.0 0.00 0.00 0.00 57 1023.5
20190420230113 8 59 0.0 0.0 0.00 0.00 0.00 56 1023.5
20190420224611 8 59 0.0 0.0 0.00 0.00 0.00 55 1023.7
20190420223056 8 59 0.0 0.0 0.00 0.00 0.00 55 1023.7
20190420221555 8 59 0.0 1.6 0.00 0.00 0.00 55 1023.8
20190420220128 9 59 0.0 0.0 0.00 0.00 0.00 55 1024.1
20190420214540 9 59 0.0 0.0 0.00 0.00 0.00 54 1024.1
20190420213041 10 59 0.0 1.6 0.00 0.00 0.00 54 1024.2
20190420211542 10 59 0.0 0.0 0.00 0.00 0.00 53 1024.2
20190420210058 10 59 0.0 0.0 0.00 0.00 0.00 53 1024.3
20190420204525 11 59 0.0 0.0 0.00 0.00 0.00 51 1024.3
20190420203112 11 59 0.0 0.0 0.00 0.00 0.00 51 1024.2
20190420201646 12 59 0.0 0.0 0.00 0.00 0.00 47 1024.2
20190420200043 12 59 0.0 0.0 0.00 0.00 0.00 45 1024.2
20190420194554 12 59 0.0 0.0 0.00 0.00 0.00 46 1024.1
20190420193037 13 59 0.0 0.0 0.00 0.00 0.00 44 1024.1
20190420191556 14 59 0.0 0.0 0.00 0.00 0.00 42 1024.0
20190420190113 15 59 0.0 0.0 0.00 0.00 0.00 40 1024.0
20190420184526 16 59 0.0 0.0 0.00 0.00 0.00 37 1023.8
20190420183038 17 59 0.0 0.0 0.00 0.00 0.00 34 1023.6
20190420181528 17 59 0.0 0.0 0.00 0.00 0.00 30 1023.7
20190420180031 18 59 0.0 0.0 0.00 0.00 0.00 29 1023.6
20190420174538 20 59 0.0 0.0 0.00 0.00 0.00 27 1023.6
20190420173031 20 59 0.0 1.6 0.00 0.00 0.00 26 1023.5
20190420171548 21 59 0.0 1.6 0.00 0.00 0.00 26 1023.5
20190420170041 21 78 0.0 6.4 0.00 0.00 0.00 24 1023.6
20190420164535 21 61 0.0 4.8 0.00 0.00 0.00 23 1023.7
20190420163015 21 100 1.6 6.4 0.00 0.00 0.00 21 1023.7
20190420161520 22 90 0.0 6.4 0.00 0.00 0.00 22 1023.9
20190420160042 22 119 0.0 4.8 0.00 0.00 0.00 21 1023.9
20190420154523 22 40 0.0 3.2 0.00 0.00 0.00 21 1023.9
20190420153014 22 95 1.6 6.4 0.00 0.00 0.00 23 1024.1
20190420151511 23 107 0.0 8.0 0.00 0.00 0.00 20 1024.3
20190420150007 23 28 1.6 9.7 0.00 0.00 0.00 24 1024.5
20190420144518 23 50 4.8 14.5 0.00 0.00 0.00 22 1024.6
20190420143007 23 56 4.8 11.3 0.00 0.00 0.00 23 1024.7
20190420141504 23 61 0.0 9.7 0.00 0.00 0.00 25 1024.8
20190420140004 23 33 1.6 8.0 0.00 0.00 0.00 24 1025.0
20190420134644 23 46 0.0 6.4 0.00 0.00 0.00 25 1025.1
20190420133321 22 35 4.8 9.7 0.00 0.00 0.00 25 1025.3
20190420131735 23 67 1.6 8.0 0.00 0.00 0.00 25 1025.5
20190420130156 23 81 1.6 9.7 0.00 0.00 0.00 26 1025.6
20190420124754 23 59 1.6 9.7 0.00 0.00 0.00 25 1025.7
20190420123242 22 61 3.2 14.5 0.00 0.00 0.00 26 1025.7
20190420121706 22 60 1.6 8.0 0.00 0.00 0.00 29 1025.9
20190420120213 22 42 4.8 12.9 0.00 0.00 0.00 29 1026.1
20190420114608 22 61 3.2 12.9 0.00 0.00 0.00 28 1026.2
20190420113106 22 93 3.2 11.3 0.00 0.00 0.00 28 1026.2
20190420111619 22 71 1.6 11.3 0.00 0.00 0.00 29 1026.3
20190420110156 21 19 3.2 9.7 0.00 0.00 0.00 31 1026.4
20190420104708 21 126 0.0 9.7 0.00 0.00 0.00 30 1026.5
20190420103206 21 135 3.2 8.0 0.00 0.00 0.00 30 1026.6
20190420101538 21 69 1.6 11.3 0.00 0.00 0.00 32 1026.7
20190420100108 21 31 0.0 9.7 0.00 0.00 0.00 35 1026.8
20190420094540 20 96 0.0 9.7 0.00 0.00 0.00 34 1026.9
20190420093048 20 61 3.2 8.0 0.00 0.00 0.00 36 1027.0
20190420090029 18 57 1.6 4.8 0.00 0.00 0.00 39 1027.2
20190420084527 18 46 1.6 8.0 0.00 0.00 0.00 42 1027.3
20190420083011 17 74 1.6 8.0 0.00 0.00 0.00 41 1027.4
20190420081502 17 47 1.6 14.5 0.00 0.00 0.00 43 1027.4
20190420080119 16 46 0.0 4.8 0.00 0.00 0.00 44 1027.5
20190420074623 16 90 0.0 6.4 0.00 0.00 0.00 45 1027.6
20190420073204 15 117 1.6 4.8 0.00 0.00 0.00 43 1027.6
20190420071654 15 51 1.6 4.8 0.00 0.00 0.00 44 1027.6
20190420070110 15 64 0.0 4.8 0.00 0.00 0.00 45 1027.6
20190420064617 13 13 0.0 3.2 0.00 0.00 0.00 48 1027.7
20190420063050 13 13 0.0 9.7 0.00 0.00 0.00 48 1027.6
20190420061605 12 79 0.0 1.6 0.00 0.00 0.00 53 1027.6
20190420060036 11 79 0.0 0.0 0.00 0.00 0.00 55 1027.5
20190420054544 10 79 0.0 3.2 0.00 0.00 0.00 57 1027.5
20190420053021 9 79 0.0 1.6 0.00 0.00 0.00 61 1027.4
20190420051524 8 79 0.0 1.6 0.00 0.00 0.00 64 1027.5
20190420050026 7 79 0.0 1.6 0.00 0.00 0.00 69 1027.4
20190420044532 6 79 0.0 0.0 0.00 0.00 0.00 70 1027.2
20190420043037 6 79 0.0 0.0 0.00 0.00 0.00 70 1027.1
20190420041524 6 79 0.0 0.0 0.00 0.00 0.00 70 1027.1
20190420040016 6 79 0.0 0.0 0.00 0.00 0.00 71 1027.1
20190420034512 6 79 0.0 0.0 0.00 0.00 0.00 72 1027.1
20190420033042 6 79 0.0 0.0 0.00 0.00 0.00 73 1027.1
20190420031520 6 79 0.0 0.0 0.00 0.00 0.00 72 1027.1
20190420030008 6 79 0.0 0.0 0.00 0.00 0.00 72 1027.1
20190420024504 6 79 0.0 0.0 0.00 0.00 0.00 71 1027.1
20190420023008 6 79 0.0 0.0 0.00 0.00 0.00 71 1027.1
20190420021502 6 79 0.0 0.0 0.00 0.00 0.00 71 1027.1
20190420020201 6 79 0.0 0.0 0.00 0.00 0.00 70 1027.1
20190420014644 6 79 0.0 0.0 0.00 0.00 0.00 69 1027.1
20190420013149 6 79 0.0 0.0 0.00 0.00 0.00 69 1027.1
20190420011715 6 79 0.0 0.0 0.00 0.00 0.00 69 1027.0
20190420010151 6 79 0.0 0.0 0.00 0.00 0.00 68 1027.0
20190420004647 7 79 0.0 0.0 0.00 0.00 0.00 66 1027.1